sat.trackr.live / text

‹ back to catalog

STARLINK-5647

NORAD 55355 · 2023-013AA

PAYLOAD ACTIVE UNKNOWN

§ Identity

Operator
Country
US
Launch date
2023-01-26
Launch site
AFETR
Launch vehicle
Mass (kg)
RCS (m²)

Purposes: comms

External: N2YO · Heavens-Above · Gunter

§ Orbital elements

Epoch: 2026-05-24T22:15:55.581696Z

Period
94.27 min
Inclination
43.0031°
Eccentricity
0.0001486
Mean motion
15.27577278 rev/d
Perigee alt
482.0 km
Apogee alt
484.1 km
Semi-major
6,861.2 km
B*
2.2208e-5
RAAN
232.7812°
Arg perigee
276.5302°
Mean anomaly
83.5380°
Rev number
18,332

§ Raw data

STARLINK-56471 55355U 23013AA  26144.92772664  .00000349  00000+0  22208-4 0  99952 55355  43.0031 232.7812 0001486 276.5302  83.5380 15.27577278183320

JSON: /api/v1/satellites/55355 · /tle

For live sub-satellite position, see the globe view (requires WebGL).

§ Visibility from observer

Set your observer location to see the next 7 days of passes ≥ 10°. The values pass through the URL so the page stays shareable.

No JS? Fill the form by hand. The geolocation button needs JavaScript.